• en Belgique
  • Liste des pays
  • À 7 jours
  • Température de l'eau
  • Carte satellitaire
  • Carte météo
  • Widgets météo
  • user-avatar
    Se connecter

    Météo par heure à Benguela

    Ce jour, 12 Décembre, Mardi

    Heure Température Précipitation Vent Pression Humidité
    00:00 +27°C° 0,1 mm 2 m/s 758 mmHg 89%
    01:00 +27°C° 0,1 mm 2 m/s 758 mmHg 90%
    02:00 +27°C° 0,3 mm 2 m/s 758 mmHg 90%
    03:00 +27°C° 0,3 mm 2 m/s 758 mmHg 91%
    04:00 +27°C° 0,3 mm 2 m/s 757 mmHg 91%
    05:00 +27°C° 0,8 mm 1 m/s 758 mmHg 91%
    06:00 +27°C° 0,8 mm 1 m/s 758 mmHg 90%
    07:00 +27°C° 0,8 mm 1 m/s 758 mmHg 90%
    08:00 +29°C° 0,4 mm 1 m/s 758 mmHg 83%
    09:00 +30°C° 0,4 mm 1 m/s 758 mmHg 76%
    10:00 +32°C° 0,4 mm 2 m/s 758 mmHg 69%
    11:00 +34°C° 0,1 mm 2 m/s 758 mmHg 66%
    12:00 +35°C° 0,1 mm 3 m/s 757 mmHg 64%
    13:00 +35°C° 0,1 mm 4 m/s 757 mmHg 61%
    14:00 +35°C° 0,1 mm 4 m/s 756 mmHg 63%
    15:00 +34°C° 0,1 mm 4 m/s 756 mmHg 65%
    16:00 +34°C° 0,1 mm 4 m/s 755 mmHg 67%
    17:00 +32°C° 0 mm 4 m/s 756 mmHg 72%
    18:00 +30°C° 0 mm 4 m/s 756 mmHg 77%
    19:00 +28°C° 0 mm 4 m/s 757 mmHg 82%
    20:00 +28°C° 0 mm 4 m/s 758 mmHg 83%
    21:00 +28°C° 0 mm 4 m/s 758 mmHg 84%
    22:00 +28°C° 0 mm 3 m/s 759 mmHg 85%
    23:00 +28°C° 0 mm 3 m/s 759 mmHg 85%

    Demain, 13 Décembre, Mercredi

    Heure Température Précipitation Vent Pression Humidité
    00:00 +28°C° 0 mm 3 m/s 759 mmHg 85%
    01:00 +28°C° 0 mm 2 m/s 758 mmHg 85%
    02:00 +28°C° 0,2 mm 2 m/s 758 mmHg 85%
    03:00 +27°C° 0,2 mm 2 m/s 758 mmHg 86%
    04:00 +27°C° 0,2 mm 2 m/s 758 mmHg 86%
    05:00 +27°C° 0,4 mm 1 m/s 758 mmHg 86%
    06:00 +28°C° 0,4 mm 1 m/s 758 mmHg 86%
    07:00 +28°C° 0,4 mm 1 m/s 759 mmHg 86%
    08:00 +28°C° 0,7 mm 1 m/s 759 mmHg 87%
    09:00 +28°C° 0,7 mm 1 m/s 759 mmHg 88%
    10:00 +28°C° 0,7 mm 1 m/s 760 mmHg 89%
    11:00 +28°C° 0,8 mm 1 m/s 759 mmHg 88%
    12:00 +28°C° 0,8 mm 1 m/s 759 mmHg 88%
    13:00 +28°C° 0,8 mm 2 m/s 759 mmHg 88%
    14:00 +28°C° 0,4 mm 2 m/s 758 mmHg 87%
    15:00 +28°C° 0,4 mm 2 m/s 758 mmHg 86%
    16:00 +28°C° 0,4 mm 2 m/s 758 mmHg 85%
    17:00 +28°C° 0,2 mm 3 m/s 758 mmHg 86%
    18:00 +28°C° 0,2 mm 3 m/s 758 mmHg 87%
    19:00 +27°C° 0,2 mm 3 m/s 759 mmHg 88%
    20:00 +27°C° 0,2 mm 3 m/s 759 mmHg 88%
    21:00 +27°C° 0,2 mm 3 m/s 760 mmHg 87%
    22:00 +27°C° 0,2 mm 3 m/s 760 mmHg 87%
    23:00 +27°C° 0,2 mm 3 m/s 760 mmHg 87%

    Après-demain, 14 Décembre, Jeudi

    Heure Température Précipitation Vent Pression Humidité
    00:00 +27°C° 0,2 mm 3 m/s 759 mmHg 87%
    01:00 +27°C° 0,2 mm 3 m/s 759 mmHg 86%
    02:00 +27°C° 0,2 mm 3 m/s 759 mmHg 86%
    03:00 +27°C° 0,2 mm 3 m/s 759 mmHg 86%
    04:00 +27°C° 0,2 mm 3 m/s 759 mmHg 86%
    05:00 +27°C° 0 mm 3 m/s 759 mmHg 86%
    06:00 +27°C° 0 mm 3 m/s 759 mmHg 85%
    07:00 +27°C° 0 mm 3 m/s 760 mmHg 85%
    08:00 +28°C° 0 mm 3 m/s 760 mmHg 81%
    09:00 +29°C° 0 mm 3 m/s 760 mmHg 77%
    10:00 +30°C° 0 mm 3 m/s 760 mmHg 73%
    11:00 +33°C° 0 mm 3 m/s 759 mmHg 67%
    12:00 +34°C° 0 mm 4 m/s 759 mmHg 62%
    13:00 +35°C° 0 mm 4 m/s 758 mmHg 56%
    14:00 +35°C° 0 mm 4 m/s 757 mmHg 56%
    15:00 +35°C° 0 mm 4 m/s 757 mmHg 56%
    16:00 +35°C° 0 mm 4 m/s 756 mmHg 56%
    17:00 +33°C° 0 mm 4 m/s 757 mmHg 65%
    18:00 +31°C° 0 mm 3 m/s 757 mmHg 73%
    19:00 +29°C° 0 mm 3 m/s 757 mmHg 81%
    20:00 +28°C° 0 mm 3 m/s 758 mmHg 83%
    21:00 +28°C° 0 mm 2 m/s 758 mmHg 86%
    22:00 +28°C° 0 mm 2 m/s 759 mmHg 88%
    23:00 +27°C° 0 mm 2 m/s 758 mmHg 89%

    15 Décembre, Vendredi

    Heure Température Précipitation Vent Pression Humidité
    00:00 +27°C° 0 mm 2 m/s 758 mmHg 90%
    01:00 +27°C° 0 mm 2 m/s 758 mmHg 91%
    02:00 +27°C° 0 mm 1 m/s 757 mmHg 91%
    03:00 +26°C° 0 mm 1 m/s 757 mmHg 92%
    04:00 +26°C° 0 mm 1 m/s 757 mmHg 92%
    05:00 +27°C° 0 mm 1 m/s 757 mmHg 89%
    06:00 +27°C° 0 mm 1 m/s 758 mmHg 87%
    07:00 +28°C° 0 mm 1 m/s 758 mmHg 84%
    08:00 +30°C° 0 mm 1 m/s 758 mmHg 74%
    09:00 +32°C° 0 mm 2 m/s 758 mmHg 65%
    10:00 +36°C° 0 mm 2 m/s 758 mmHg 56%
    11:00 +36°C° 0 mm 3 m/s 758 mmHg 53%
    12:00 +37°C° 0 mm 4 m/s 757 mmHg 51%
    13:00 +37°C° 0 mm 4 m/s 756 mmHg 49%
    14:00 +36°C° 0 mm 5 m/s 756 mmHg 51%
    15:00 +36°C° 0 mm 5 m/s 755 mmHg 53%
    16:00 +35°C° 0 mm 5 m/s 755 mmHg 55%
    17:00 +33°C° 0 mm 4 m/s 756 mmHg 60%
    18:00 +32°C° 0 mm 4 m/s 756 mmHg 64%
    19:00 +29°C° 0 mm 3 m/s 757 mmHg 68%
    20:00 +29°C° 0 mm 3 m/s 757 mmHg 70%
    21:00 +28°C° 0 mm 2 m/s 758 mmHg 72%
    22:00 +28°C° 0 mm 2 m/s 758 mmHg 73%
    23:00 +28°C° 0 mm 2 m/s 758 mmHg 75%

    16 Décembre, Samedi

    Heure Température Précipitation Vent Pression Humidité
    00:00 +27°C° 0 mm 2 m/s 758 mmHg 76%
    01:00 +27°C° 0 mm 2 m/s 757 mmHg 78%
    02:00 +27°C° 0 mm 1 m/s 757 mmHg 79%
    03:00 +26°C° 0 mm 1 m/s 757 mmHg 81%
    04:00 +26°C° 0 mm 1 m/s 757 mmHg 82%
    05:00 +27°C° 0 mm 1 m/s 757 mmHg 80%
    06:00 +27°C° 0 mm 1 m/s 757 mmHg 79%
    07:00 +27°C° 0 mm 1 m/s 758 mmHg 77%
    08:00 +29°C° 0 mm 1 m/s 758 mmHg 68%
    09:00 +31°C° 0 mm 2 m/s 758 mmHg 59%
    10:00 +34°C° 0 mm 2 m/s 758 mmHg 50%
    11:00 +34°C° 0 mm 3 m/s 758 mmHg 48%
    12:00 +35°C° 0 mm 3 m/s 757 mmHg 46%
    13:00 +35°C° 0 mm 3 m/s 757 mmHg 45%
    14:00 +35°C° 0 mm 3 m/s 756 mmHg 47%
    15:00 +34°C° 0 mm 4 m/s 756 mmHg 49%
    16:00 +34°C° 0 mm 4 m/s 756 mmHg 50%
    17:00 +32°C° 0 mm 4 m/s 756 mmHg 56%
    18:00 +30°C° 0 mm 3 m/s 757 mmHg 62%
    19:00 +28°C° 0 mm 3 m/s 757 mmHg 68%
    20:00 +28°C° 0 mm 3 m/s 758 mmHg 70%
    21:00 +27°C° 0 mm 2 m/s 758 mmHg 73%
    22:00 +27°C° 0 mm 2 m/s 759 mmHg 75%
    23:00 +27°C° 0 mm 2 m/s 758 mmHg 76%

    17 Décembre, Dimanche

    Heure Température Précipitation Vent Pression Humidité
    00:00 +26°C° 0 mm 1 m/s 758 mmHg 78%
    01:00 +26°C° 0 mm 1 m/s 758 mmHg 79%
    02:00 +26°C° 0 mm 1 m/s 757 mmHg 79%
    03:00 +26°C° 0 mm 1 m/s 757 mmHg 79%
    04:00 +25°C° 0 mm 1 m/s 757 mmHg 79%
    05:00 +26°C° 0 mm 1 m/s 758 mmHg 77%
    06:00 +26°C° 0 mm 1 m/s 758 mmHg 74%
    07:00 +27°C° 0 mm 1 m/s 759 mmHg 72%
    08:00 +28°C° 0 mm 1 m/s 759 mmHg 65%
    09:00 +30°C° 0 mm 2 m/s 759 mmHg 57%
    10:00 +31°C° 0 mm 2 m/s 759 mmHg 50%
    11:00 +33°C° 0 mm 3 m/s 758 mmHg 49%
    12:00 +33°C° 0 mm 3 m/s 758 mmHg 49%
    13:00 +33°C° 0 mm 3 m/s 757 mmHg 49%
    14:00 +33°C° 0 mm 3 m/s 757 mmHg 52%
    15:00 +31°C° 0 mm 3 m/s 757 mmHg 56%
    16:00 +31°C° 0 mm 3 m/s 756 mmHg 59%
    17:00 +30°C° 0 mm 3 m/s 757 mmHg 64%
    18:00 +28°C° 0 mm 3 m/s 757 mmHg 69%
    19:00 +27°C° 0 mm 2 m/s 758 mmHg 74%
    20:00 +27°C° 0 mm 2 m/s 758 mmHg 76%
    21:00 +26°C° 0 mm 2 m/s 759 mmHg 79%
    22:00 +26°C° 0 mm 2 m/s 759 mmHg 81%
    23:00 +26°C° 0 mm 2 m/s 759 mmHg 81%
    Voir plus